GW4127 Weather Reports


Display with metric or nautical units.
time (UTC)temp
F
wind
direction
speed
MPH
gust
MPH
rain 1hr
in
rain 24hr
in
rain mn
in
humidity
%
barometer
mb
20260504044614 49 301 0.0 2.0 0.00 0.00 0.00 98 1017.4
20260504043051 49 301 0.0 0.0 0.00 0.00 0.00 98 1017.5
20260504041538 49 301 0.0 0.0 0.00 0.00 0.00 98 1017.7
20260504040027 50 301 0.0 4.0 0.00 0.00 0.00 98 1017.8
20260504034531 50 301 0.0 3.0 0.00 0.00 0.00 98 1017.9
20260504033036 50 301 1.0 5.0 0.00 0.00 0.00 98 1017.9
20260504031525 50 301 1.0 5.0 0.00 0.00 0.00 98 1017.9
20260504030020 50 301 1.0 5.0 0.00 0.00 0.00 98 1017.9
20260504024516 50 301 3.0 10.0 0.00 0.00 0.00 98 1017.7
20260504023006 50 301 5.0 9.0 0.00 0.00 0.00 98 1017.5
20260504021503 49 301 5.0 9.0 0.00 0.00 0.00 98 1017.5
20260504020044 49 301 4.0 11.0 0.00 0.00 0.00 98 1017.6
20260504014543 50 301 3.0 9.0 0.00 0.00 0.00 98 1017.8
20260504013020 50 301 3.0 7.0 0.00 0.00 0.00 98 1018.1
20260504011519 50 301 2.0 5.0 0.00 0.00 0.00 98 1018.2
20260504010009 49 301 0.0 3.0 0.00 0.00 0.00 98 1018.4
20260504004555 49 301 0.0 4.0 0.00 0.00 0.00 98 1018.4
20260504003043 49 301 3.0 9.0 0.00 0.00 0.00 98 1018.6
20260504001540 49 301 2.0 7.0 0.00 0.00 0.00 98 1018.4
20260504000025 49 301 1.0 6.0 0.00 0.00 0.00 98 1018.6
20260503234511 49 301 4.0 7.0 0.00 0.00 0.00 98 1018.5
20260503233002 49 301 0.0 4.0 0.00 0.00 0.00 98 1018.8
20260503231556 49 301 0.0 4.0 0.00 0.00 0.00 98 1018.8
20260503230055 49 301 3.0 8.0 0.00 0.00 0.00 98 1018.7
20260503224535 49 301 4.0 8.0 0.00 0.00 0.00 97 1018.7
20260503223037 49 301 4.0 9.0 0.00 0.00 0.00 97 1018.7
20260503221532 49 301 3.0 10.0 0.00 0.00 0.00 97 1018.7
20260503220024 49 301 4.0 11.0 0.00 0.00 0.00 97 1018.6
20260503214515 49 301 4.0 9.0 0.00 0.00 0.00 97 1018.7
20260503213013 49 301 3.0 8.0 0.00 0.00 0.00 96 1018.7
20260503211503 49 301 3.0 8.0 0.00 0.00 0.00 96 1018.7
20260503210058 49 301 0.0 5.0 0.00 0.00 0.00 97 1018.8
20260503204518 49 301 2.0 6.0 0.00 0.00 0.00 96 1019.0
20260503203059 49 301 0.0 4.0 0.00 0.00 0.00 96 1019.1
20260503201559 49 301 1.0 5.0 0.00 0.00 0.00 96 1019.0
20260503201503 49 301 0.0 5.0 0.00 0.00 0.00 96 1019.0
20260503200003 49 301 1.0 5.0 0.00 0.00 0.00 96 1019.2
20260503194508 49 301 1.0 6.0 0.00 0.00 0.00 96 1018.9
20260503193056 49 301 2.0 7.0 0.00 0.00 0.00 96 1018.9
20260503191551 50 301 2.0 9.0 0.00 0.00 0.00 96 1018.9
20260503190046 50 301 3.0 7.0 0.00 0.00 0.00 96 1018.7
20260503184541 50 301 2.0 7.0 0.00 0.00 0.00 96 1018.7
20260503183033 51 301 1.0 5.0 0.00 0.00 0.00 96 1018.7
20260503181523 51 301 3.0 8.0 0.00 0.00 0.00 95 1018.6
20260503180013 51 301 3.0 8.0 0.00 0.00 0.00 95 1018.6
20260503174509 52 301 2.0 7.0 0.00 0.00 0.00 95 1018.8
20260503173008 52 301 1.0 8.0 0.00 0.00 0.00 94 1018.7
20260503171547 53 301 0.0 7.0 0.00 0.00 0.00 93 1018.8
20260503081517 53 301 2.0 9.0 0.00 0.00 0.00 91 1020.8